Year,Month,Day,Hour,Minute,Value (Times are PST for temperature in C)
2019,01,27,00,00,5.00
2019,01,27,00,01,5.00
2019,01,27,00,02,5.00
2019,01,27,00,03,5.00
2019,01,27,00,04,5.00
2019,01,27,00,05,5.00
2019,01,27,00,06,5.00
2019,01,27,00,07,5.00
2019,01,27,00,08,5.00
2019,01,27,00,09,5.00
2019,01,27,00,10,5.00
2019,01,27,00,11,4.90
2019,01,27,00,12,4.90
2019,01,27,00,13,4.90
2019,01,27,00,14,5.00
2019,01,27,00,15,4.90
2019,01,27,00,16,4.90
2019,01,27,00,17,5.00
2019,01,27,00,18,5.00
2019,01,27,00,19,5.00
2019,01,27,00,20,5.00
2019,01,27,00,21,4.90
2019,01,27,00,22,5.00
2019,01,27,00,23,4.90
2019,01,27,00,24,4.90
2019,01,27,00,25,4.90
2019,01,27,00,26,5.00
2019,01,27,00,27,5.00
2019,01,27,00,28,4.90
2019,01,27,00,29,5.00
2019,01,27,00,30,4.90
2019,01,27,00,31,4.90
2019,01,27,00,32,4.90
2019,01,27,00,33,4.90
2019,01,27,00,34,4.90
2019,01,27,00,35,4.90
2019,01,27,00,36,4.90
2019,01,27,00,37,4.90
2019,01,27,00,38,4.90
2019,01,27,00,39,4.90
2019,01,27,00,40,4.90
2019,01,27,00,41,4.90
2019,01,27,00,42,4.90
2019,01,27,00,43,4.90
2019,01,27,00,44,4.80
2019,01,27,00,45,4.80
2019,01,27,00,46,4.80
2019,01,27,00,47,4.80
2019,01,27,00,48,4.80
2019,01,27,00,49,4.80
2019,01,27,00,50,4.80
2019,01,27,00,51,4.80
2019,01,27,00,52,4.80
2019,01,27,00,53,4.80
2019,01,27,00,54,4.80
2019,01,27,00,55,4.80
2019,01,27,00,56,4.80
2019,01,27,00,57,4.80
2019,01,27,00,58,4.80
2019,01,27,00,59,4.80
2019,01,27,01,00,4.80
2019,01,27,01,01,4.80
2019,01,27,01,02,4.80
2019,01,27,01,03,4.80
2019,01,27,01,04,4.70
2019,01,27,01,05,4.70
2019,01,27,01,06,4.70
2019,01,27,01,07,4.70
2019,01,27,01,08,4.70
2019,01,27,01,09,4.70
2019,01,27,01,10,4.70
2019,01,27,01,11,4.70
2019,01,27,01,12,4.70
2019,01,27,01,13,4.70
2019,01,27,01,14,4.70
2019,01,27,01,15,4.70
2019,01,27,01,16,4.70
2019,01,27,01,17,4.70
2019,01,27,01,18,4.60
2019,01,27,01,19,4.60
2019,01,27,01,20,4.60
2019,01,27,01,21,4.60
2019,01,27,01,22,4.60
2019,01,27,01,23,4.60
2019,01,27,01,24,4.60
2019,01,27,01,25,4.60
2019,01,27,01,26,4.60
2019,01,27,01,27,4.60
2019,01,27,01,28,4.60
2019,01,27,01,29,4.60
2019,01,27,01,30,4.60
2019,01,27,01,31,4.60
2019,01,27,01,32,4.50
2019,01,27,01,33,4.50
2019,01,27,01,34,4.50
2019,01,27,01,35,4.50
2019,01,27,01,36,4.50
2019,01,27,01,37,4.50
2019,01,27,01,38,4.50
2019,01,27,01,39,4.50
2019,01,27,01,40,4.50
2019,01,27,01,41,4.50
2019,01,27,01,42,4.50
2019,01,27,01,43,4.50
2019,01,27,01,44,4.50
2019,01,27,01,45,4.50
2019,01,27,01,46,4.50
2019,01,27,01,47,4.50
2019,01,27,01,48,4.50
2019,01,27,01,49,4.50
2019,01,27,01,50,4.50
2019,01,27,01,51,4.50
2019,01,27,01,52,4.50
2019,01,27,01,53,4.50
2019,01,27,01,54,4.50
2019,01,27,01,55,4.60
2019,01,27,01,56,4.60
2019,01,27,01,57,4.60
2019,01,27,01,58,4.60
2019,01,27,01,59,4.60
2019,01,27,02,00,4.60
2019,01,27,02,01,4.60
2019,01,27,02,02,4.60
2019,01,27,02,03,4.50
2019,01,27,02,04,4.50
2019,01,27,02,05,4.50
2019,01,27,02,06,4.50
2019,01,27,02,07,4.50
2019,01,27,02,08,4.50
2019,01,27,02,09,4.50
2019,01,27,02,10,4.50
2019,01,27,02,11,4.50
2019,01,27,02,12,4.50
2019,01,27,02,13,4.50
2019,01,27,02,14,4.50
2019,01,27,02,15,4.50
2019,01,27,02,16,4.50
2019,01,27,02,17,4.40
2019,01,27,02,18,4.40
2019,01,27,02,19,4.40
2019,01,27,02,20,4.40
2019,01,27,02,21,4.40
2019,01,27,02,22,4.40
2019,01,27,02,23,4.40
2019,01,27,02,24,4.40
2019,01,27,02,25,4.40
2019,01,27,02,26,4.40
2019,01,27,02,27,4.40
2019,01,27,02,28,4.40
2019,01,27,02,29,4.40
2019,01,27,02,30,4.40
2019,01,27,02,31,4.40
2019,01,27,02,32,4.40
2019,01,27,02,33,4.40
2019,01,27,02,34,4.40
2019,01,27,02,35,4.40
2019,01,27,02,36,4.40
2019,01,27,02,37,4.40
2019,01,27,02,38,4.40
2019,01,27,02,39,4.40
2019,01,27,02,40,4.40
2019,01,27,02,41,4.40
2019,01,27,02,42,4.40
2019,01,27,02,43,4.40
2019,01,27,02,44,4.40
2019,01,27,02,45,4.40
2019,01,27,02,46,4.40
2019,01,27,02,47,4.50
2019,01,27,02,48,4.50
2019,01,27,02,49,4.50
2019,01,27,02,50,4.50
2019,01,27,02,51,4.50
2019,01,27,02,52,4.50
2019,01,27,02,53,4.50
2019,01,27,02,54,4.50
2019,01,27,02,55,4.50
2019,01,27,02,56,4.50
2019,01,27,02,57,4.60
2019,01,27,02,58,4.60
2019,01,27,02,59,4.60
2019,01,27,03,00,4.60
2019,01,27,03,01,4.60
2019,01,27,03,02,4.60
2019,01,27,03,03,4.60
2019,01,27,03,04,4.60
2019,01,27,03,05,4.60
2019,01,27,03,06,4.60
2019,01,27,03,07,4.60
2019,01,27,03,08,4.70
2019,01,27,03,09,4.70
2019,01,27,03,10,4.70
2019,01,27,03,11,4.70
2019,01,27,03,12,4.70
2019,01,27,03,13,4.70
2019,01,27,03,14,4.70
2019,01,27,03,15,4.70
2019,01,27,03,16,4.70
2019,01,27,03,17,4.70
2019,01,27,03,18,4.80
2019,01,27,03,19,4.80
2019,01,27,03,20,4.80
2019,01,27,03,21,4.80
2019,01,27,03,22,4.80
2019,01,27,03,23,4.80
2019,01,27,03,24,4.80
2019,01,27,03,25,4.80
2019,01,27,03,26,4.80
2019,01,27,03,27,4.90
2019,01,27,03,28,4.90
2019,01,27,03,29,4.90
2019,01,27,03,30,4.90
2019,01,27,03,31,4.90
2019,01,27,03,32,4.90
2019,01,27,03,33,4.90
2019,01,27,03,34,5.00
2019,01,27,03,35,5.00
2019,01,27,03,36,5.00
2019,01,27,03,37,5.00
2019,01,27,03,38,5.00
2019,01,27,03,39,5.10
2019,01,27,03,40,5.10
2019,01,27,03,41,5.10
2019,01,27,03,42,5.10
2019,01,27,03,43,5.10
2019,01,27,03,44,5.10
2019,01,27,03,45,5.10
2019,01,27,03,46,5.10
2019,01,27,03,47,5.10
2019,01,27,03,48,5.20
2019,01,27,03,49,5.20
2019,01,27,03,50,5.20
2019,01,27,03,51,5.20
2019,01,27,03,52,5.20
2019,01,27,03,53,5.20
2019,01,27,03,54,5.20
2019,01,27,03,55,5.20
2019,01,27,03,56,5.20
2019,01,27,03,57,5.20
2019,01,27,03,58,5.20
2019,01,27,03,59,5.20
2019,01,27,04,00,5.20
2019,01,27,04,01,5.20
2019,01,27,04,02,5.20
2019,01,27,04,03,5.20
2019,01,27,04,04,5.20
2019,01,27,04,05,5.20
2019,01,27,04,06,5.20
2019,01,27,04,07,5.20
2019,01,27,04,08,5.20
2019,01,27,04,09,5.30
2019,01,27,04,10,5.30
2019,01,27,04,11,5.30
2019,01,27,04,12,5.30
2019,01,27,04,13,5.30
2019,01,27,04,14,5.30
2019,01,27,04,15,5.30
2019,01,27,04,16,5.30
2019,01,27,04,17,5.30
2019,01,27,04,18,5.30
2019,01,27,04,19,5.30
2019,01,27,04,20,5.30
2019,01,27,04,21,5.30
2019,01,27,04,22,5.30
2019,01,27,04,23,5.30
2019,01,27,04,24,5.30
2019,01,27,04,25,5.30
2019,01,27,04,26,5.30
2019,01,27,04,27,5.30
2019,01,27,04,28,5.30
2019,01,27,04,29,5.30
2019,01,27,04,30,5.30
2019,01,27,04,31,5.30
2019,01,27,04,32,5.30
2019,01,27,04,33,5.30
2019,01,27,04,34,5.30
2019,01,27,04,35,5.30
2019,01,27,04,36,5.30
2019,01,27,04,37,5.30
2019,01,27,04,38,5.30
2019,01,27,04,39,5.30
2019,01,27,04,40,5.30
2019,01,27,04,41,5.30
2019,01,27,04,42,5.30
2019,01,27,04,43,5.40
2019,01,27,04,44,5.40
2019,01,27,04,45,5.40
2019,01,27,04,46,5.40
2019,01,27,04,47,5.40
2019,01,27,04,48,5.40
2019,01,27,04,49,5.50
2019,01,27,04,50,5.50
2019,01,27,04,51,5.50
2019,01,27,04,52,5.50
2019,01,27,04,53,5.50
2019,01,27,04,54,5.60
2019,01,27,04,55,5.60
2019,01,27,04,56,5.60
2019,01,27,04,57,5.60
2019,01,27,04,58,5.60
2019,01,27,04,59,5.60
2019,01,27,05,00,5.60
2019,01,27,05,01,5.70
2019,01,27,05,02,5.70
2019,01,27,05,03,5.70
2019,01,27,05,04,5.70
2019,01,27,05,05,5.70
2019,01,27,05,06,5.70
2019,01,27,05,07,5.70
2019,01,27,05,08,5.70
2019,01,27,05,09,5.70
2019,01,27,05,10,5.70
2019,01,27,05,11,5.70
2019,01,27,05,12,5.60
2019,01,27,05,13,5.60
2019,01,27,05,14,5.60
2019,01,27,05,15,5.60
2019,01,27,05,16,5.60
2019,01,27,05,17,5.60
2019,01,27,05,18,5.50
2019,01,27,05,19,5.50
2019,01,27,05,20,5.50
2019,01,27,05,21,5.50
2019,01,27,05,22,5.40
2019,01,27,05,23,5.40
2019,01,27,05,24,5.40
2019,01,27,05,25,5.40
2019,01,27,05,26,5.40
2019,01,27,05,27,5.30
2019,01,27,05,28,5.30
2019,01,27,05,29,5.30
2019,01,27,05,30,5.30
2019,01,27,05,31,5.30
2019,01,27,05,32,5.30
2019,01,27,05,33,5.30
2019,01,27,05,34,5.30
2019,01,27,05,35,5.20
2019,01,27,05,36,5.20
2019,01,27,05,37,5.20
2019,01,27,05,38,5.20
2019,01,27,05,39,5.20
2019,01,27,05,40,5.20
2019,01,27,05,41,5.20
2019,01,27,05,42,5.20
2019,01,27,05,43,5.20
2019,01,27,05,44,5.20
2019,01,27,05,45,5.30
2019,01,27,05,46,5.30
2019,01,27,05,47,5.30
2019,01,27,05,48,5.30
2019,01,27,05,49,5.30
2019,01,27,05,50,5.30
2019,01,27,05,51,5.30
2019,01,27,05,52,5.30
2019,01,27,05,53,5.30
2019,01,27,05,54,5.30
2019,01,27,05,55,5.30
2019,01,27,05,56,5.30
2019,01,27,05,57,5.40
2019,01,27,05,58,5.40
2019,01,27,05,59,5.40
2019,01,27,06,00,5.40
2019,01,27,06,01,5.40
2019,01,27,06,02,5.40
2019,01,27,06,03,5.40
2019,01,27,06,04,5.40
2019,01,27,06,05,5.40
2019,01,27,06,06,5.40
2019,01,27,06,07,5.40
2019,01,27,06,08,5.50
2019,01,27,06,09,5.50
2019,01,27,06,10,5.60
2019,01,27,06,11,5.60
2019,01,27,06,12,5.60
2019,01,27,06,13,5.60
2019,01,27,06,14,5.60
2019,01,27,06,15,5.60
2019,01,27,06,16,5.60
2019,01,27,06,17,5.60
2019,01,27,06,18,5.60
2019,01,27,06,19,5.60
2019,01,27,06,20,5.60
2019,01,27,06,21,5.70
2019,01,27,06,22,5.70
2019,01,27,06,23,5.70
2019,01,27,06,24,5.70
2019,01,27,06,25,5.70
2019,01,27,06,26,5.70
2019,01,27,06,27,5.70
2019,01,27,06,28,5.70
2019,01,27,06,29,5.70
2019,01,27,06,30,5.70
2019,01,27,06,31,5.70
2019,01,27,06,32,5.70
2019,01,27,06,33,5.70
2019,01,27,06,34,5.70
2019,01,27,06,35,5.70
2019,01,27,06,36,5.70
2019,01,27,06,37,5.70
2019,01,27,06,38,5.70
2019,01,27,06,39,5.70
2019,01,27,06,40,5.60
2019,01,27,06,41,5.60
2019,01,27,06,42,5.60
2019,01,27,06,43,5.60
2019,01,27,06,44,5.60
2019,01,27,06,45,5.60
2019,01,27,06,46,5.60
2019,01,27,06,47,5.60
2019,01,27,06,48,5.70
2019,01,27,06,49,5.70
2019,01,27,06,50,5.70
2019,01,27,06,51,5.70
2019,01,27,06,52,5.70
2019,01,27,06,53,5.70
2019,01,27,06,54,5.70
2019,01,27,06,55,5.70
2019,01,27,06,56,5.70
2019,01,27,06,57,5.70
2019,01,27,06,58,5.80
2019,01,27,06,59,5.80
2019,01,27,07,00,5.80
2019,01,27,07,01,5.80
2019,01,27,07,02,5.80
2019,01,27,07,03,5.80
2019,01,27,07,04,5.80
2019,01,27,07,05,5.90
2019,01,27,07,06,5.90
2019,01,27,07,07,5.90
2019,01,27,07,08,5.90
2019,01,27,07,09,6.00
2019,01,27,07,10,6.00
2019,01,27,07,11,6.00
2019,01,27,07,12,6.00
2019,01,27,07,13,6.00
2019,01,27,07,14,6.10
2019,01,27,07,15,6.10
2019,01,27,07,16,6.10
2019,01,27,07,17,6.10
2019,01,27,07,18,6.10
2019,01,27,07,19,6.10
2019,01,27,07,20,6.10
2019,01,27,07,21,6.10
2019,01,27,07,22,6.10
2019,01,27,07,23,6.10
2019,01,27,07,24,6.20
2019,01,27,07,25,6.20
2019,01,27,07,26,6.20
2019,01,27,07,27,6.20
2019,01,27,07,28,6.20
2019,01,27,07,29,6.20
2019,01,27,07,30,6.20
2019,01,27,07,31,6.20
2019,01,27,07,32,6.30
2019,01,27,07,33,6.30
2019,01,27,07,34,6.30
2019,01,27,07,35,6.30
2019,01,27,07,36,6.30
2019,01,27,07,37,6.30
2019,01,27,07,38,6.40
2019,01,27,07,39,6.40
2019,01,27,07,40,6.40
2019,01,27,07,41,6.40
2019,01,27,07,42,6.40
2019,01,27,07,43,6.40
2019,01,27,07,44,6.50
2019,01,27,07,45,6.50
2019,01,27,07,46,6.50
2019,01,27,07,47,6.50
2019,01,27,07,48,6.50
2019,01,27,07,49,6.50
2019,01,27,07,50,6.50
2019,01,27,07,51,6.50
2019,01,27,07,52,6.60
2019,01,27,07,53,6.60
2019,01,27,07,54,6.60
2019,01,27,07,55,6.60
2019,01,27,07,56,6.60
2019,01,27,07,57,6.60
2019,01,27,07,58,6.60
2019,01,27,07,59,6.60
2019,01,27,08,00,6.60
2019,01,27,08,01,6.60
2019,01,27,08,02,6.60
2019,01,27,08,03,6.60
2019,01,27,08,04,6.60
2019,01,27,08,05,6.70
2019,01,27,08,06,6.70
2019,01,27,08,07,6.70
2019,01,27,08,08,6.70
2019,01,27,08,09,6.70
2019,01,27,08,10,6.70
2019,01,27,08,11,6.70
2019,01,27,08,12,6.70
2019,01,27,08,13,6.80
2019,01,27,08,14,6.80
2019,01,27,08,15,6.80
2019,01,27,08,16,6.80
2019,01,27,08,17,6.80
2019,01,27,08,18,6.80
2019,01,27,08,19,6.80
2019,01,27,08,20,6.80
2019,01,27,08,21,6.80
2019,01,27,08,22,6.80
2019,01,27,08,23,6.90
2019,01,27,08,24,6.80
2019,01,27,08,25,6.90
2019,01,27,08,26,6.90
2019,01,27,08,27,6.90
2019,01,27,08,28,6.90
2019,01,27,08,29,6.90
2019,01,27,08,30,6.90
2019,01,27,08,31,6.90
2019,01,27,08,32,6.90
2019,01,27,08,33,6.90
2019,01,27,08,34,6.90
2019,01,27,08,35,6.90
2019,01,27,08,36,6.90
2019,01,27,08,37,6.90
2019,01,27,08,38,7.00
2019,01,27,08,39,7.00
2019,01,27,08,40,7.00
2019,01,27,08,41,7.00
2019,01,27,08,42,7.00
2019,01,27,08,43,7.00
2019,01,27,08,44,7.10
2019,01,27,08,45,7.10
2019,01,27,08,46,7.10
2019,01,27,08,47,7.10
2019,01,27,08,48,7.10
2019,01,27,08,49,7.10
2019,01,27,08,50,7.10
2019,01,27,08,51,7.10
2019,01,27,08,52,7.10
2019,01,27,08,53,7.10
2019,01,27,08,54,7.10
2019,01,27,08,55,7.10
2019,01,27,08,56,7.10
2019,01,27,08,57,7.10
2019,01,27,08,58,7.10
2019,01,27,08,59,7.10
2019,01,27,09,00,7.10
2019,01,27,09,01,7.10
2019,01,27,09,02,7.10
2019,01,27,09,03,7.10
2019,01,27,09,04,7.10
2019,01,27,09,05,7.10
2019,01,27,09,06,7.10
2019,01,27,09,07,7.10
2019,01,27,09,08,7.10
2019,01,27,09,09,7.10
2019,01,27,09,10,7.20
2019,01,27,09,11,7.20
2019,01,27,09,12,7.20
2019,01,27,09,13,7.20
2019,01,27,09,14,7.20
2019,01,27,09,15,7.20
2019,01,27,09,16,7.20
2019,01,27,09,17,7.20
2019,01,27,09,18,7.20
2019,01,27,09,19,7.20
2019,01,27,09,20,7.20
2019,01,27,09,21,7.30
2019,01,27,09,22,7.30
2019,01,27,09,23,7.30
2019,01,27,09,24,7.30
2019,01,27,09,25,7.30
2019,01,27,09,26,7.30
2019,01,27,09,27,7.30
2019,01,27,09,28,7.30
2019,01,27,09,29,7.30
2019,01,27,09,30,7.30
2019,01,27,09,31,7.30
2019,01,27,09,32,7.30
2019,01,27,09,33,7.30
2019,01,27,09,34,7.40
2019,01,27,09,35,7.40
2019,01,27,09,36,7.40
2019,01,27,09,37,7.40
2019,01,27,09,38,7.40
2019,01,27,09,39,7.40
2019,01,27,09,40,7.40
2019,01,27,09,41,7.40
2019,01,27,09,42,7.40
2019,01,27,09,43,7.40
2019,01,27,09,44,7.40
2019,01,27,09,45,7.40
2019,01,27,09,46,7.40
2019,01,27,09,47,7.40
2019,01,27,09,48,7.40
2019,01,27,09,49,7.40
2019,01,27,09,50,7.40
2019,01,27,09,51,7.40
2019,01,27,09,52,7.40
2019,01,27,09,53,7.40
2019,01,27,09,54,7.40
2019,01,27,09,55,7.40
2019,01,27,09,56,7.50
2019,01,27,09,57,7.50
2019,01,27,09,58,7.50
2019,01,27,09,59,7.50
2019,01,27,10,00,7.50
2019,01,27,10,01,7.50
2019,01,27,10,02,7.50
2019,01,27,10,03,7.50
2019,01,27,10,04,7.40
2019,01,27,10,05,7.40
2019,01,27,10,06,7.40
2019,01,27,10,07,7.40
2019,01,27,10,08,7.40
2019,01,27,10,09,7.40
2019,01,27,10,10,7.40
2019,01,27,10,11,7.40
2019,01,27,10,12,7.40
2019,01,27,10,13,7.40
2019,01,27,10,14,7.40
2019,01,27,10,15,7.40
2019,01,27,10,16,7.40
2019,01,27,10,17,7.40
2019,01,27,10,18,7.40
2019,01,27,10,19,7.40
2019,01,27,10,20,7.40
2019,01,27,10,21,7.40
2019,01,27,10,22,7.40
2019,01,27,10,23,7.40
2019,01,27,10,24,7.40
2019,01,27,10,25,7.40
2019,01,27,10,26,7.40
2019,01,27,10,27,7.40
2019,01,27,10,28,7.40
2019,01,27,10,29,7.40
2019,01,27,10,30,7.40
2019,01,27,10,31,7.40
2019,01,27,10,32,7.40
2019,01,27,10,33,7.40
2019,01,27,10,34,7.40
2019,01,27,10,35,7.40
2019,01,27,10,36,7.40
2019,01,27,10,37,7.40
2019,01,27,10,38,7.40
2019,01,27,10,39,7.40
2019,01,27,10,40,7.40
2019,01,27,10,41,7.40
2019,01,27,10,42,7.40
2019,01,27,10,43,7.40
2019,01,27,10,44,7.40
2019,01,27,10,45,7.40
2019,01,27,10,46,7.30
2019,01,27,10,47,7.30
2019,01,27,10,48,7.30
2019,01,27,10,49,7.30
2019,01,27,10,50,7.30
2019,01,27,10,51,7.30
2019,01,27,10,52,7.30
2019,01,27,10,53,7.30
2019,01,27,10,54,7.30
2019,01,27,10,55,7.30
2019,01,27,10,56,7.40
2019,01,27,10,57,7.40
2019,01,27,10,58,7.40
2019,01,27,10,59,7.40
2019,01,27,11,00,7.40
2019,01,27,11,01,7.40
2019,01,27,11,02,7.40
2019,01,27,11,03,7.50
2019,01,27,11,04,7.50
2019,01,27,11,05,7.60
2019,01,27,11,06,7.60
2019,01,27,11,07,7.60
2019,01,27,11,08,7.60
2019,01,27,11,09,7.60
2019,01,27,11,10,7.60
2019,01,27,11,11,7.60
2019,01,27,11,12,7.70
2019,01,27,11,13,7.70
2019,01,27,11,14,7.70
2019,01,27,11,15,7.70
2019,01,27,11,16,7.70
2019,01,27,11,17,7.70
2019,01,27,11,18,7.70
2019,01,27,11,19,7.70
2019,01,27,11,20,7.70
2019,01,27,11,21,7.80
2019,01,27,11,22,7.80
2019,01,27,11,23,7.80
2019,01,27,11,24,7.80
2019,01,27,11,25,7.80
2019,01,27,11,26,7.90
2019,01,27,11,27,7.90
2019,01,27,11,28,7.90
2019,01,27,11,29,8.00
2019,01,27,11,30,8.00
2019,01,27,11,31,8.00
2019,01,27,11,32,8.10
2019,01,27,11,33,8.10
2019,01,27,11,34,8.00
2019,01,27,11,35,8.00
2019,01,27,11,36,7.90
2019,01,27,11,37,7.90
2019,01,27,11,38,7.90
2019,01,27,11,39,8.00
2019,01,27,11,40,8.00
2019,01,27,11,41,8.00
2019,01,27,11,42,8.00
2019,01,27,11,43,8.00
2019,01,27,11,44,8.00
2019,01,27,11,45,8.00
2019,01,27,11,46,8.00
2019,01,27,11,47,8.00
2019,01,27,11,48,8.00
2019,01,27,11,49,8.00
2019,01,27,11,50,8.00
2019,01,27,11,51,8.00
2019,01,27,11,52,8.00
2019,01,27,11,53,8.00
2019,01,27,11,54,8.00
2019,01,27,11,55,8.00
2019,01,27,11,56,8.00
2019,01,27,11,57,8.00
2019,01,27,11,58,8.00
2019,01,27,11,59,8.00
2019,01,27,12,00,8.00
2019,01,27,12,01,8.00
2019,01,27,12,02,8.00
2019,01,27,12,03,8.00
2019,01,27,12,04,8.00
2019,01,27,12,05,8.00
2019,01,27,12,06,7.90
2019,01,27,12,07,7.90
2019,01,27,12,08,7.90
2019,01,27,12,09,7.90
2019,01,27,12,10,7.90
2019,01,27,12,11,7.90
2019,01,27,12,12,7.90
2019,01,27,12,13,7.90
2019,01,27,12,14,7.90
2019,01,27,12,15,7.90
2019,01,27,12,16,7.90
2019,01,27,12,17,7.90
2019,01,27,12,18,7.90
2019,01,27,12,19,7.90
2019,01,27,12,20,7.90
2019,01,27,12,21,7.90
2019,01,27,12,22,8.00
2019,01,27,12,23,8.00
2019,01,27,12,24,8.00
2019,01,27,12,25,8.10
2019,01,27,12,26,8.10
2019,01,27,12,27,8.10
2019,01,27,12,28,8.10
2019,01,27,12,29,8.10
2019,01,27,12,30,8.10
2019,01,27,12,31,8.20
2019,01,27,12,32,8.20
2019,01,27,12,33,8.20
2019,01,27,12,34,8.10
2019,01,27,12,35,8.10
2019,01,27,12,36,8.20
2019,01,27,12,37,8.20
2019,01,27,12,38,8.20
2019,01,27,12,39,8.20
2019,01,27,12,40,8.10
2019,01,27,12,41,8.10
2019,01,27,12,42,8.10
2019,01,27,12,43,8.20
2019,01,27,12,44,8.20
2019,01,27,12,45,8.20
2019,01,27,12,46,8.20
2019,01,27,12,47,8.20
2019,01,27,12,48,8.20
2019,01,27,12,49,8.20
2019,01,27,12,50,8.20
2019,01,27,12,51,8.20
2019,01,27,12,52,8.30
2019,01,27,12,53,8.30
2019,01,27,12,54,8.40
2019,01,27,12,55,8.50
2019,01,27,12,56,8.50
2019,01,27,12,57,8.60
2019,01,27,12,58,8.50
2019,01,27,12,59,8.40
2019,01,27,13,00,8.40
2019,01,27,13,01,8.40
2019,01,27,13,02,8.50
2019,01,27,13,03,8.50
2019,01,27,13,04,8.50
2019,01,27,13,05,8.50
2019,01,27,13,06,8.40
2019,01,27,13,07,8.40
2019,01,27,13,08,8.40
2019,01,27,13,09,8.40
2019,01,27,13,10,8.40
2019,01,27,13,11,8.30
2019,01,27,13,12,8.30
2019,01,27,13,13,8.30
2019,01,27,13,14,8.30
2019,01,27,13,15,8.30
2019,01,27,13,16,8.30
2019,01,27,13,17,8.30
2019,01,27,13,18,8.30
2019,01,27,13,19,8.30
2019,01,27,13,20,8.30
2019,01,27,13,21,8.30
2019,01,27,13,22,8.30
2019,01,27,13,23,8.30
2019,01,27,13,24,8.30
2019,01,27,13,25,8.30
2019,01,27,13,26,8.30
2019,01,27,13,27,8.30
2019,01,27,13,28,8.30
2019,01,27,13,29,8.30
2019,01,27,13,30,8.30
2019,01,27,13,31,8.30
2019,01,27,13,32,8.20
2019,01,27,13,33,8.20
2019,01,27,13,34,8.20
2019,01,27,13,35,8.20
2019,01,27,13,36,8.20
2019,01,27,13,37,8.30
2019,01,27,13,38,8.30
2019,01,27,13,39,8.30
2019,01,27,13,40,8.20
2019,01,27,13,41,8.20
2019,01,27,13,42,8.20
2019,01,27,13,43,8.20
2019,01,27,13,44,8.20
2019,01,27,13,45,8.20
2019,01,27,13,46,8.20
2019,01,27,13,47,8.20
2019,01,27,13,48,8.10
2019,01,27,13,49,8.10
2019,01,27,13,50,8.10
2019,01,27,13,51,8.10
2019,01,27,13,52,8.20
2019,01,27,13,53,8.20
2019,01,27,13,54,8.20
2019,01,27,13,55,8.20
2019,01,27,13,56,8.10
2019,01,27,13,57,8.10
2019,01,27,13,58,8.10
2019,01,27,13,59,8.10
2019,01,27,14,00,8.10
2019,01,27,14,01,8.10
2019,01,27,14,02,8.10
2019,01,27,14,03,8.10
2019,01,27,14,04,8.10
2019,01,27,14,05,8.20
2019,01,27,14,06,8.20
2019,01,27,14,07,8.10
2019,01,27,14,08,8.10
2019,01,27,14,09,8.10
2019,01,27,14,10,8.10
2019,01,27,14,11,8.10
2019,01,27,14,12,8.10
2019,01,27,14,13,8.10
2019,01,27,14,14,8.10
2019,01,27,14,15,8.10
2019,01,27,14,16,8.10
2019,01,27,14,17,8.10
2019,01,27,14,18,8.00
2019,01,27,14,19,8.00
2019,01,27,14,20,7.90
2019,01,27,14,21,7.90
2019,01,27,14,22,7.90
2019,01,27,14,23,7.90
2019,01,27,14,24,7.90
2019,01,27,14,25,7.90
2019,01,27,14,26,7.90
2019,01,27,14,27,7.90
2019,01,27,14,28,7.90
2019,01,27,14,29,7.90
2019,01,27,14,30,7.90
2019,01,27,14,31,7.80
2019,01,27,14,32,7.80
2019,01,27,14,33,7.80
2019,01,27,14,34,7.80
2019,01,27,14,35,7.80
2019,01,27,14,36,7.90
2019,01,27,14,37,7.90
2019,01,27,14,38,7.90
2019,01,27,14,39,7.90
2019,01,27,14,40,7.90
2019,01,27,14,41,7.90
2019,01,27,14,42,7.90
2019,01,27,14,43,7.90
2019,01,27,14,44,7.80
2019,01,27,14,45,7.80
2019,01,27,14,46,7.80
2019,01,27,14,47,7.80
2019,01,27,14,48,7.80
2019,01,27,14,49,7.80
2019,01,27,14,50,7.80
2019,01,27,14,51,7.80
2019,01,27,14,52,7.80
2019,01,27,14,53,7.80
2019,01,27,14,54,7.80
2019,01,27,14,55,7.80
2019,01,27,14,56,7.80
2019,01,27,14,57,7.80
2019,01,27,14,58,7.80
2019,01,27,14,59,7.90
2019,01,27,15,00,7.90
2019,01,27,15,01,7.90
2019,01,27,15,02,7.90
2019,01,27,15,03,7.90
2019,01,27,15,04,7.90
2019,01,27,15,05,7.90
2019,01,27,15,06,7.90
2019,01,27,15,07,7.90
2019,01,27,15,08,7.90
2019,01,27,15,09,7.80
2019,01,27,15,10,7.80
2019,01,27,15,11,7.70
2019,01,27,15,12,7.70
2019,01,27,15,13,7.70
2019,01,27,15,14,7.70
2019,01,27,15,15,7.70
2019,01,27,15,16,7.70
2019,01,27,15,17,7.70
2019,01,27,15,18,7.60
2019,01,27,15,19,7.60
2019,01,27,15,20,7.60
2019,01,27,15,21,7.60
2019,01,27,15,22,7.60
2019,01,27,15,23,7.60
2019,01,27,15,24,7.60
2019,01,27,15,25,7.50
2019,01,27,15,26,7.50
2019,01,27,15,27,7.50
2019,01,27,15,28,7.60
2019,01,27,15,29,7.60
2019,01,27,15,30,7.60
2019,01,27,15,31,7.60
2019,01,27,15,32,7.50
2019,01,27,15,33,7.50
2019,01,27,15,34,7.40
2019,01,27,15,35,7.40
2019,01,27,15,36,7.40
2019,01,27,15,37,7.40
2019,01,27,15,38,7.30
2019,01,27,15,39,7.30
2019,01,27,15,40,7.30
2019,01,27,15,41,7.30
2019,01,27,15,42,7.30
2019,01,27,15,43,7.40
2019,01,27,15,44,7.40
2019,01,27,15,45,7.40
2019,01,27,15,46,7.40
2019,01,27,15,47,7.40
2019,01,27,15,48,7.40
2019,01,27,15,49,7.40
2019,01,27,15,50,7.40
2019,01,27,15,51,7.40
2019,01,27,15,52,7.40
2019,01,27,15,53,7.40
2019,01,27,15,54,7.40
2019,01,27,15,55,7.40
2019,01,27,15,56,7.40
2019,01,27,15,57,7.30
2019,01,27,15,58,7.30
2019,01,27,15,59,7.30
2019,01,27,16,00,7.30
2019,01,27,16,01,7.30
2019,01,27,16,02,7.30
2019,01,27,16,03,7.30
2019,01,27,16,04,7.30
2019,01,27,16,05,7.40
2019,01,27,16,06,7.40
2019,01,27,16,07,7.40
2019,01,27,16,08,7.40
2019,01,27,16,09,7.40
2019,01,27,16,10,7.40
2019,01,27,16,11,7.40
2019,01,27,16,12,7.40
2019,01,27,16,13,7.40
2019,01,27,16,14,7.30
2019,01,27,16,15,7.30
2019,01,27,16,16,7.30
2019,01,27,16,17,7.30
2019,01,27,16,18,7.30
2019,01,27,16,19,7.30
2019,01,27,16,20,7.30
2019,01,27,16,21,7.30
2019,01,27,16,22,7.30
2019,01,27,16,23,7.30
2019,01,27,16,24,7.30
2019,01,27,16,25,7.30
2019,01,27,16,26,7.30
2019,01,27,16,27,7.30
2019,01,27,16,28,7.30
2019,01,27,16,29,7.30
2019,01,27,16,30,7.30
2019,01,27,16,31,7.30
2019,01,27,16,32,7.30
2019,01,27,16,33,7.30
2019,01,27,16,34,7.30
2019,01,27,16,35,7.30
2019,01,27,16,36,7.30
2019,01,27,16,37,7.30
2019,01,27,16,38,7.30
2019,01,27,16,39,7.30
2019,01,27,16,40,7.30
2019,01,27,16,41,7.20
2019,01,27,16,42,7.20
2019,01,27,16,43,7.20
2019,01,27,16,44,7.20
2019,01,27,16,45,7.20
2019,01,27,16,46,7.20
2019,01,27,16,47,7.20
2019,01,27,16,48,7.20
2019,01,27,16,49,7.20
2019,01,27,16,50,7.20
2019,01,27,16,51,7.20
2019,01,27,16,52,7.20
2019,01,27,16,53,7.20
2019,01,27,16,54,7.20
2019,01,27,16,55,7.20
2019,01,27,16,56,7.20
2019,01,27,16,57,7.20
2019,01,27,16,58,7.20
2019,01,27,16,59,7.20
2019,01,27,17,00,7.20
2019,01,27,17,01,7.20
2019,01,27,17,02,7.20
2019,01,27,17,03,7.20
2019,01,27,17,04,7.20
2019,01,27,17,05,7.10
2019,01,27,17,06,7.10
2019,01,27,17,07,7.10
2019,01,27,17,08,7.10
2019,01,27,17,09,7.10
2019,01,27,17,10,7.10
2019,01,27,17,11,7.10
2019,01,27,17,12,7.10
2019,01,27,17,13,7.10
2019,01,27,17,14,7.10
2019,01,27,17,15,7.10
2019,01,27,17,16,7.10
2019,01,27,17,17,7.10
2019,01,27,17,18,7.10
2019,01,27,17,19,7.10
2019,01,27,17,20,7.10
2019,01,27,17,21,7.10
2019,01,27,17,22,7.10
2019,01,27,17,23,7.10
2019,01,27,17,24,7.10
2019,01,27,17,25,7.10
2019,01,27,17,26,7.10
2019,01,27,17,27,7.10
2019,01,27,17,28,7.10
2019,01,27,17,29,7.10
2019,01,27,17,30,7.10
2019,01,27,17,31,7.10
2019,01,27,17,32,7.10
2019,01,27,17,33,7.10
2019,01,27,17,34,7.10
2019,01,27,17,35,7.10
2019,01,27,17,36,7.10
2019,01,27,17,37,7.10
2019,01,27,17,38,7.10
2019,01,27,17,39,7.10
2019,01,27,17,40,7.10
2019,01,27,17,41,7.10
2019,01,27,17,42,7.00
2019,01,27,17,43,7.00
2019,01,27,17,44,7.00
2019,01,27,17,45,7.00
2019,01,27,17,46,7.00
2019,01,27,17,47,7.00
2019,01,27,17,48,6.90
2019,01,27,17,49,6.90
2019,01,27,17,50,6.90
2019,01,27,17,51,6.90
2019,01,27,17,52,6.90
2019,01,27,17,53,6.90
2019,01,27,17,54,6.90
2019,01,27,17,55,6.80
2019,01,27,17,56,6.80
2019,01,27,17,57,6.80
2019,01,27,17,58,6.80
2019,01,27,17,59,6.80
2019,01,27,18,00,6.80
2019,01,27,18,01,6.80
2019,01,27,18,02,6.80
2019,01,27,18,03,6.80
2019,01,27,18,04,6.80
2019,01,27,18,05,6.80
2019,01,27,18,06,6.80